Regional Weather Roundup
Issued by NWS Charleston, SC

Home | Current Version | Previous Version | Text Only | Print | Product List | Glossary On
Versions: 1 2 3 4 5 6 7 8 9 10 11 12 13 14 15 16 17 18 19 20 21 22 23 24 25 26 27 28 29 30 31 32 33 34 35 36 37 38 39 40 41 42 43 44 45 46 47 48 49 50
000
ASUS42 KCHS 250025
RWRCHS

REGIONAL WEATHER ROUNDUP
NATIONAL WEATHER SERVICE CHARLESTON SC
800 PM EDT THU APR 24 2014

NOTE: "FAIR" INDICATES FEW OR NO CLOUDS BELOW 12,000 FEET WITH NO
SIGNIFICANT WEATHER AND/OR OBSTRUCTIONS TO VISIBILITY.

NOT ALL STATIONS ARE QUALITY CONTROLLED BY THE NATIONAL
WEATHER SERVICE. USE DATA WITH CAUTION...ESPECIALLY
DEWPOINT OBSERVATIONS.

SCZ027-030-031-034>040-042>050-250100-
...SOUTH CAROLINA...

CITY           SKY/WX    TMP DP  RH WIND       PRES   REMARKS
N CHARLESTON   PTCLDY    67  56  67 E7        30.00F
6HR MIN TEMP:  67; 6HR MAX TEMP:  77;

WATERFRONT PRK   N/A     64 N/A N/A NE9         N/A
FORT JOHNSON     N/A     64  61  88 E7G15     30.05S
MOUNT PLEASANT LGT RAIN  64  59  82 CALM      30.01S
JOHNS ISLAND   CLEAR     64  61  88 CALM      30.01R
PINOPOLIS        N/A     73  57  56 SE3       29.92R
MONCKS CORNER  FAIR      70  59  68 CALM      30.00S
SUMMERVILLE    NOT AVBL
BEAUFORT MCAS  PTCLDY    68  61  78 SE6       29.99S
6HR MIN TEMP:  68; 6HR MAX TEMP:  75;

BEAUFORT ARPT  FAIR      64  63  94 E8        29.98S
HILTON HEAD IS CLEAR     64  63  94 NE6       30.00S
GEORGETOWN     NOT AVBL
WALTERBORO     CLEAR     64  61  88 E6        29.99S
ORANGEBURG     PTCLDY    73  55  53 SE6       29.98R
6HR MIN TEMP:  72; 6HR MAX TEMP:  80;

BARNWELL       FAIR      72  57  60 SE10      29.97S
AIKEN          FAIR      72  54  53 CALM      29.98S
MANNING        FAIR      68  55  64 CALM      30.00S
KINGSTREE      NOT AVBL
COLUMBIA       PTCLDY    74  50  42 E8        29.95F
6HR MIN TEMP:  74; 6HR MAX TEMP:  80;

SUMTER         CLEAR     73  54  51 S7        29.96S
6HR MIN TEMP:  73; 6HR MAX TEMP:  79; 6HR PCP: TRACE;

FLORENCE       CLEAR     69  47  45 S10       30.00R
6HR MIN TEMP:  69; 6HR MAX TEMP:  77;

MYRTLE BEACH   CLEAR     63  54  72 CALM      30.04R
N MYRTLE BEACH CLEAR     61  53  75 E5        30.03S
6HR MIN TEMP:  61; 6HR MAX TEMP:  68;


$$

GAZ063-065-086>088-099>101-113>116-118-119-134-136>141-150-250100-
...GEORGIA...

CITY           SKY/WX    TMP DP  RH WIND       PRES   REMARKS
SAVANNAH ARPT  PTCLDY    70  60  70 E8        29.98S
6HR MIN TEMP:  70; 6HR MAX TEMP:  80;

HUNTER AAF     CLEAR     67  62  86 E10       29.96S
6HR MIN TEMP:  67; 6HR MAX TEMP:  76; 6HR PCP: TRACE;

FORT STEWART   CLEAR     69  66  89 E7        29.95S
6HR MIN TEMP:  69; 6HR MAX TEMP:  84;

STATESBORO     NOT AVBL
SYLVANIA       PTCLDY    72  61  68 SE5       29.97S
CLAXTON        FAIR      72  64  78 SE5       29.96R
THOMSON        PTCLDY    69  59  72 CALM      29.97S
AUGUSTA-BUSH   MOCLDY    70  55  59 S3        29.93F
6HR MIN TEMP:  70; 6HR MAX TEMP:  82;

AUGUSTA-DANIEL PTCLDY    78  50  37 S3        29.94F
SWAINSBORO     FAIR      70  59  68 CALM      29.94F
VIDALIA        CLEAR     75  63  64 SE5       29.94S
ALMA           CLEAR     73  62  68 CALM      29.92S
6HR MIN TEMP:  73; 6HR MAX TEMP:  85;

WAYCROSS       NOT AVBL
JESUP          FAIR      72  68  88 E8        29.95S
BRUNSWICK      CLEAR     72  68  88 E6        29.97R
SAINT SIMONS   CLEAR     71  68  90 E5        29.96S
6HR MIN TEMP:  71; 6HR MAX TEMP:  78;


$$

SCZ027-028-034-036>038-045-046-048>050-GAZ119-141-250100-
...LAKE AND SUPPLEMENTAL COASTAL OBSERVATIONS...

STATION/POSITION TIME  TEMP    WIND        PRES    WAVE   SWELL
                       AIR SEA DIR/SP/G            HT/PER HT/PER/DIR
                 (UTC) (F)     (DEG/KT/KT) (MB)    (FT/S) (FT/S/D)
UPR LAKE MARION  NOT AVBL
WINYAH BAY       0000   62      60/  8     1016.0S
LAKE MURRAY      0000   73      50/  1/  6 1013.9S
ACE BASIN NERRS  0000   66      60/  4     1015.0S
FORT PULASKI     NOT AVBL
SAPELO ISLAND    2300   72      60/  5     1015.0S

$$

ANZ835-935-AMZ111-154-330-350-352-354-374-450-454-472-250100-
...C-MAN AND BUOY OBSERVATIONS...

STATION/POSITION TIME  TEMP    WIND        PRES    WAVE   SWELL
                       AIR SEA DIR/SP/G            HT/PER HT/PER/DIR
                 (UTC) (F)     (DEG/KT/KT) (MB)    (FT/S) (FT/S/D)
FOLLY BEACH CMAN 0000   64      40/ 13/ 14 1016.3S
BUOY 41004       0000   73 72  130/ 10/ 12 1015.0S   4/ 6   3/ 6
BUOY 41008       0000   69 68  100/  4/  4 1014.6R   2/ 5   2/ 30/ 5
5E ST. MARYS GA  0000      70                N/A     1/ 8
FRYING PAN BUOY  0000   67 68  100/ 12/ 14 1016.4R   4/ 9   3/100/ 9
BUOY 41025       NOT AVBL
CAPE LOOKOUT NC  0000   60     130/  6/  6 1017.5R
BUOY 41002       NOT AVBL
BUOY 41010       0000   75 76  150/  6/  8 1016.0R   2/ 8   2/ 80/ 8
BUOY 41012       NOT AVBL
ST AUGUSTINE FL  0000   71     180/ 12/ 13 1014.7R
CAPERS NEARSHORE NOT AVBL
FRIPP NEARSHORE  2300   65      80/ 12/ 16   N/A


$$



USA.gov is the U.S. government's official web portal to all federal, state and local government web resources and services.